Wind_Speed
13 13 12 13 14 14 14 14 13 13 12 11 11 11 12 12 11 11 11 11 10 8 7 5 5 3 2 1 1 1 2 3 3 3 3 3 2 3 3 3 3 4 4 4 4 4 4 4 5
14 13 12 13 15 14 14 14 13 13 12 12 12 12 11 11 11 11 11 11 11 10 8 6 5 4 3 1 1 1 1 2 2 3 3 2 2 3 3 3 3 4 4 4 4 4 4 5 5
14 14 13 15 16 16 16 15 14 13 12 12 12 12 12 11 11 12 12 11 11 10 9 7 5 4 3 2 1 1 1 2 2 2 2 2 2 2 3 3 4 4 4 5 5 4 4 4 5
14 13 14 15 16 16 16 15 15 13 12 12 13 13 12 12 12 12 11 11 11 11 9 8 7 5 4 3 2 2 2 2 2 1 2 2 2 3 3 3 4 5 5 5 4 5 5 5 5
13 13 14 14 15 16 15 15 14 13 13 12 12 12 12 12 12 12 12 11 11 11 10 9 8 6 5 4 3 3 3 2 1 2 2 2 1 2 2 3 4 5 5 5 5 5 6 6 6
11 13 15 16 17 16 15 14 13 14 13 13 13 12 12 12 12 12 12 12 12 11 11 10 9 8 6 6 5 4 3 3 2 2 1 1 1 2 2 3 5 5 5 5 5 5 6 6 6
12 14 15 16 17 16 15 13 13 14 14 13 13 12 12 12 12 12 12 12 12 11 11 11 10 9 7 6 6 5 4 4 3 3 2 1 1 2 3 4 5 5 5 5 6 6 6 6 6
9 12 14 14 15 15 15 14 13 14 14 13 12 13 12 12 12 12 11 11 11 12 12 12 11 9 8 7 6 5 4 4 4 3 2 1 1 2 3 4 5 5 5 5 6 6 6 6 6
11 12 13 13 14 14 14 14 14 14 15 15 14 14 13 12 12 11 11 11 11 12 12 12 12 10 8 7 7 6 6 5 5 4 3 2 2 2 3 3 3 4 5 5 5 6 6 6 7
11 12 11 11 11 11 12 14 15 15 15 14 15 14 13 12 12 11 11 11 11 12 13 12 12 11 9 8 7 7 6 6 5 5 4 3 2 2 2 2 3 4 4 5 5 5 6 7 7
10 10 10 9 10 10 11 13 13 14 15 15 14 14 13 13 13 12 12 11 11 12 13 13 13 12 10 9 8 7 6 6 6 6 5 4 3 2 2 1 2 3 4 5 5 5 5 7 8
6 7 9 9 9 10 11 12 13 13 14 15 15 14 14 13 13 12 12 12 11 11 12 12 12 12 11 10 9 8 7 7 7 6 6 5 4 3 2 1 2 3 4 5 5 5 6 6 8
6 7 8 9 9 10 11 11 12 12 13 14 14 13 13 13 13 12 12 12 11 12 12 12 12 11 11 10 9 9 9 9 8 7 6 5 4 4 4 2 3 3 3 3 4 5 6 6 8
5 6 7 8 8 9 10 10 11 13 12 12 13 13 13 13 13 12 11 11 11 11 12 12 11 11 11 10 9 9 9 9 8 7 7 6 5 4 4 4 4 4 3 3 4 4 5 6 6
4 4 6 7 7 8 9 10 12 12 11 12 12 12 12 11 11 12 11 11 11 11 11 11 11 11 10 10 9 9 9 9 8 8 7 7 7 6 5 5 4 3 3 4 3 3 3 3 3
3 3 5 6 7 8 9 10 11 10 11 11 11 11 11 11 11 11 10 10 10 10 10 10 9 10 10 9 9 8 8 8 9 8 8 8 8 8 8 6 5 4 4 4 3 2 2 2 2
3 2 4 5 7 8 9 10 9 10 10 10 10 10 10 11 11 10 10 10 10 10 10 9 8 8 9 9 9 8 8 8 9 9 9 8 8 8 7 7 6 5 5 5 4 4 3 2 2
3 1 3 5 6 7 7 9 9 8 8 8 9 9 9 11 11 10 9 10 9 9 9 9 8 8 8 8 8 7 8 8 8 8 9 8 8 7 8 7 7 6 6 5 5 4 3 2 2
3 1 1 4 5 6 7 7 7 6 6 6 7 8 9 10 10 9 8 9 9 8 8 8 8 8 8 8 8 8 8 8 8 8 8 8 8 7 8 7 7 7 7 6 5 5 4 3 3
3 3 3 5 6 7 8 7 6 6 7 7 7 7 8 9 8 7 7 8 8 8 7 7 8 8 8 7 7 8 8 8 8 9 9 9 9 9 8 8 8 8 8 7 6 5 5 4 4
5 5 5 6 7 7 8 8 7 7 9 8 7 7 7 7 7 7 7 8 7 7 8 8 8 8 8 8 8 8 8 8 9 9 9 10 10 10 10 9 9 8 8 7 6 5 5 5 5
6 6 7 6 7 8 9 9 7 7 7 8 7 6 6 7 7 7 8 7 7 7 7 7 8 8 8 8 8 8 9 9 9 9 9 10 10 10 10 10 9 9 8 8 8 7 7 7 6
7 6 6 6 7 9 9 10 7 7 8 8 7 7 6 8 8 8 9 7 7 7 7 7 8 9 9 8 8 9 10 10 10 10 10 10 10 10 10 10 10 10 10 9 9 9 9 8 8
9 8 7 7 9 10 9 10 9 7 7 6 6 7 8 8 8 8 9 8 8 7 8 8 8 9 9 9 9 10 10 11 11 11 11 11 11 11 11 10 10 10 10 10 10 10 10 10 10
11 10 8 8 8 9 9 9 10 8 8 8 7 8 8 9 9 8 9 8 8 8 8 9 9 9 9 10 10 10 11 11 12 12 13 13 13 12 12 11 11 11 11 11 11 11 11 11 10
10 11 10 9 9 9 10 10 10 8 9 9 8 9 11 10 8 9 8 8 9 9 10 9 9 10 10 11 11 11 12 12 13 13 13 13 13 13 13 13 12 12 12 12 12 12 11 11 11
13 12 11 11 12 12 11 12 11 10 11 11 9 10 12 11 9 9 8 8 8 9 10 10 10 11 12 12 12 12 13 13 14 14 14 14 14 14 13 13 13 13 13 13 13 13 13 13 13
15 14 13 13 13 13 13 13 11 12 11 11 11 11 12 13 10 9 10 10 10 10 11 11 11 12 13 13 13 13 14 14 15 15 15 15 15 15 15 14 14 14 15 15 14 14 14 14 13
15 16 16 15 15 15 15 14 13 14 12 12 12 13 15 14 12 11 11 11 10 11 11 12 12 12 13 13 14 14 15 15 15 16 15 15 16 16 16 16 16 17 16 16 15 15 15 15 14
17 17 18 17 16 16 16 15 13 13 12 12 13 14 13 14 13 13 12 12 12 12 13 13 13 13 13 14 15 15 15 16 16 16 16 16 17 17 18 18 18 18 17 17 17 16 16 16 16
Wind_Direction
83 78 75 69 61 55 49 45 45 46 42 39 38 35 33 34 34 31 31 38 47 51 54 49 46 48 45 63 149 177 204 219 213 201 202 208 206 201 207 208 209 209 204 205 211 214 211 209 206
77 71 68 67 59 54 48 44 41 44 39 36 31 27 30 34 36 35 38 43 48 45 46 43 38 33 29 14 205 198 207 209 199 197 200 206 214 222 221 217 215 209 211 218 221 215 216 217 218
75 69 65 64 58 54 50 46 42 41 35 31 29 28 29 34 37 38 43 46 45 41 38 35 32 28 32 36 43 107 159 175 182 193 200 214 234 236 232 231 222 217 225 231 223 217 228 231 227
73 69 62 60 57 54 50 45 44 40 33 29 31 32 32 35 37 37 41 45 43 40 35 34 35 44 54 69 79 83 106 137 159 185 201 218 235 229 229 240 233 230 236 237 232 231 234 235 234
75 70 61 55 56 55 54 45 39 35 30 28 33 37 37 38 38 38 42 44 42 41 41 41 43 47 60 81 84 88 86 91 125 169 191 209 236 241 237 236 232 230 238 245 245 245 246 241 241
75 69 63 56 54 53 52 45 39 35 31 30 35 36 36 39 40 40 44 44 43 43 44 44 48 51 65 79 87 86 88 84 86 110 169 216 241 245 246 234 228 235 246 250 245 248 249 245 242
72 66 60 57 53 49 48 46 44 37 34 31 34 36 35 43 44 44 45 45 44 44 43 46 51 57 69 79 84 91 87 77 80 81 94 159 229 248 247 247 247 248 248 245 244 249 252 245 245
68 67 62 55 54 52 49 44 39 38 34 33 34 35 36 42 46 45 41 45 46 44 45 48 54 56 60 73 75 80 78 69 69 63 56 22 276 269 259 256 253 248 243 249 251 252 252 246 245
64 68 60 54 52 46 46 42 38 38 33 31 34 36 36 40 44 46 42 44 46 43 44 45 50 55 59 64 68 73 69 62 54 44 38 10 317 287 272 259 253 253 253 257 256 254 252 248 242
67 59 52 48 47 43 42 45 41 33 31 31 35 36 37 40 42 47 48 46 47 44 41 43 49 55 62 65 68 71 65 58 46 36 28 15 350 336 290 258 260 257 267 265 259 264 258 252 246
63 59 47 44 39 39 41 45 43 32 34 34 35 36 35 37 38 42 44 47 48 44 42 45 49 53 59 63 65 66 59 50 39 31 22 23 21 19 333 252 255 259 273 274 261 253 257 246 243
57 48 48 45 41 40 41 44 37 34 33 33 35 36 36 36 37 40 42 44 46 47 48 49 50 54 56 59 56 50 42 40 37 33 20 20 34 36 8 287 295 293 292 284 264 256 256 250 243
53 58 49 36 37 31 28 33 27 36 35 31 32 35 35 34 32 36 37 39 42 44 46 47 49 54 52 50 51 46 43 41 37 35 28 24 38 35 14 345 330 325 308 282 279 276 272 262 247
62 57 57 41 36 27 19 26 30 34 35 31 30 32 33 34 30 29 32 37 40 42 43 46 50 52 50 47 48 44 42 41 34 30 28 24 19 10 352 342 323 329 328 317 309 306 282 266 251
79 62 55 45 47 34 18 19 21 29 35 30 28 28 32 32 28 26 27 32 34 35 39 41 44 46 46 45 43 40 37 36 32 26 28 25 16 9 355 353 342 334 340 330 322 322 290 275 258
101 71 49 41 34 20 8 6 11 18 29 29 24 25 28 31 30 27 24 26 29 31 34 37 40 40 37 36 34 33 31 26 23 22 25 21 16 15 12 10 4 3 1 346 342 340 320 322 281
128 63 45 29 23 9 360 3 6 14 21 23 17 21 25 29 31 29 26 25 26 27 29 31 33 35 31 30 28 29 27 21 18 18 19 16 12 14 10 11 5 354 345 349 1 12 2 355 342
147 73 22 10 7 359 357 359 5 5 15 17 13 14 21 24 25 28 26 22 22 22 21 25 26 25 23 21 21 22 19 16 13 11 12 14 7 4 3 2 354 348 345 353 354 351 347 345 346
177 210 331 336 340 340 348 347 356 6 11 5 3 15 12 12 15 21 24 20 20 19 16 21 18 17 18 18 18 16 10 6 5 5 6 5 359 354 351 352 349 345 341 342 348 347 338 317 291
219 248 305 318 315 311 325 333 345 341 353 356 358 6 9 2 5 12 13 13 11 12 11 10 6 6 7 8 7 5 2 359 358 356 356 356 355 351 343 342 342 341 338 330 326 333 332 321 323
233 246 269 301 312 313 320 324 325 330 339 342 345 352 9 8 7 10 9 8 3 2 358 356 355 353 354 354 354 355 355 351 348 346 342 341 343 343 342 341 336 332 332 333 331 326 323 323 316
229 242 259 282 294 300 302 310 310 318 328 330 340 347 4 7 360 4 4 2 357 353 352 348 347 344 343 343 344 344 346 345 341 338 336 335 336 334 336 337 332 328 324 321 324 321 316 315 310
232 241 250 265 285 294 297 299 309 313 324 325 336 344 347 353 351 348 350 353 347 344 348 345 340 337 336 338 338 337 337 338 336 332 331 331 330 327 328 329 329 328 322 315 315 318 311 307 303
225 237 244 259 276 285 292 292 294 303 311 313 333 343 334 339 340 336 339 341 347 339 335 335 334 336 334 333 332 331 332 333 331 329 328 327 323 320 322 326 326 324 322 319 315 313 312 309 305
226 234 243 263 270 275 280 285 296 298 301 300 309 328 331 324 328 322 323 330 332 331 327 327 330 329 327 328 326 326 326 327 328 325 323 320 318 315 318 321 319 317 316 314 313 312 309 306 304
227 234 243 262 270 272 276 284 290 289 299 299 309 329 330 316 314 321 316 321 322 325 327 326 326 326 324 322 320 320 320 321 321 320 318 315 314 313 314 315 313 311 312 310 308 308 304 301 296
234 235 241 257 269 274 276 281 285 292 300 305 311 325 329 321 318 315 312 314 313 321 323 322 323 321 320 318 315 314 315 318 318 317 314 313 311 309 309 310 310 309 308 307 305 304 300 296 291
238 236 240 251 266 275 277 280 284 296 298 305 308 314 322 322 315 316 315 314 309 312 315 315 316 317 317 316 315 311 313 314 314 316 313 312 311 308 306 305 306 305 305 307 304 300 298 294 289
236 236 241 251 262 272 276 279 283 287 292 308 313 313 318 316 312 309 306 306 302 303 306 310 312 314 314 314 312 312 311 312 311 311 311 309 310 310 306 304 304 304 303 304 302 299 296 291 288
233 241 242 244 252 262 270 278 278 285 290 297 306 310 310 316 313 309 301 300 299 300 304 309 312 314 313 312 311 311 310 310 310 310 310 309 308 307 304 301 300 300 300 300 299 297 294 291 289
Height
5899 5898 5898 5898 5897 5896 5895 5894 5893 5892 5891 5890 5888 5887 5886 5885 5884 5883 5879 5874 5872 5871 5872 5872 5872 5872 5873 5873 5873 5873 5873 5874 5875 5875 5876 5876 5877 5878 5878 5878 5879 5879 5879 5880 5880 5880 5880 5881 5881
5900 5900 5900 5899 5897 5897 5896 5895 5894 5893 5892 5890 5890 5888 5887 5885 5884 5881 5879 5876 5874 5874 5873 5873 5873 5872 5872 5872 5872 5873 5873 5873 5874 5875 5876 5876 5877 5877 5877 5878 5878 5878 5879 5879 5879 5879 5880 5880 5880
5902 5901 5902 5900 5898 5898 5898 5896 5895 5894 5893 5892 5891 5889 5887 5886 5884 5882 5880 5878 5877 5876 5875 5874 5873 5872 5872 5872 5872 5872 5873 5873 5873 5874 5875 5876 5876 5876 5877 5877 5877 5878 5878 5879 5879 5879 5879 5879 5880
5903 5903 5903 5901 5900 5899 5898 5898 5897 5895 5894 5893 5891 5890 5888 5886 5884 5883 5881 5879 5878 5877 5876 5874 5872 5871 5871 5871 5871 5872 5872 5873 5873 5874 5875 5875 5876 5876 5876 5876 5877 5877 5878 5878 5878 5878 5878 5878 5879
5905 5904 5903 5902 5901 5900 5900 5899 5898 5897 5895 5894 5892 5890 5889 5887 5885 5883 5882 5881 5880 5878 5876 5874 5873 5871 5870 5870 5871 5872 5872 5873 5873 5873 5874 5874 5875 5875 5876 5876 5876 5876 5876 5876 5877 5877 5877 5877 5877
5907 5906 5905 5903 5902 5902 5902 5901 5900 5898 5896 5894 5893 5891 5890 5888 5886 5885 5883 5882 5881 5879 5878 5876 5874 5871 5870 5870 5872 5873 5873 5873 5873 5873 5873 5874 5874 5874 5875 5875 5875 5875 5875 5875 5875 5875 5875 5875 5875
5908 5907 5906 5905 5905 5904 5903 5902 5901 5899 5897 5895 5894 5892 5891 5889 5888 5886 5885 5883 5882 5881 5879 5877 5875 5873 5872 5872 5873 5874 5874 5874 5874 5874 5873 5873 5873 5873 5874 5874 5874 5874 5874 5874 5874 5874 5873 5873 5873
5909 5909 5908 5907 5906 5905 5904 5903 5902 5900 5899 5897 5895 5893 5891 5890 5889 5887 5886 5885 5884 5882 5881 5879 5877 5876 5874 5874 5875 5875 5875 5875 5875 5874 5873 5873 5873 5872 5872 5872 5872 5872 5872 5872 5872 5872 5871 5871 5871
5910 5910 5909 5909 5908 5907 5906 5905 5904 5901 5900 5898 5896 5894 5893 5891 5890 5889 5888 5887 5885 5884 5883 5881 5879 5878 5877 5876 5876 5876 5876 5876 5875 5874 5873 5872 5871 5871 5870 5870 5870 5871 5871 5870 5870 5870 5870 5870 5870
5911 5911 5910 5910 5909 5909 5907 5906 5905 5903 5902 5900 5898 5896 5894 5893 5892 5891 5890 5888 5887 5885 5884 5882 5881 5879 5878 5878 5877 5877 5877 5876 5876 5875 5874 5872 5870 5869 5869 5869 5869 5869 5869 5869 5868 5868 5868 5868 5867
5911 5912 5911 5911 5910 5909 5908 5908 5906 5905 5904 5902 5900 5898 5896 5895 5893 5892 5891 5890 5888 5887 5885 5883 5882 5881 5880 5879 5879 5878 5878 5877 5877 5876 5874 5873 5871 5869 5868 5868 5869 5869 5868 5867 5867 5866 5866 5866 5865
5913 5912 5912 5912 5911 5910 5909 5908 5908 5906 5905 5903 5901 5900 5898 5896 5895 5893 5892 5891 5890 5889 5887 5885 5884 5883 5882 5881 5881 5880 5879 5878 5877 5876 5875 5873 5872 5870 5869 5868 5868 5867 5867 5866 5865 5864 5863 5863 5863
5914 5913 5913 5913 5912 5911 5910 5910 5909 5907 5906 5904 5903 5901 5900 5898 5897 5895 5893 5892 5891 5890 5888 5887 5886 5885 5884 5883 5882 5881 5880 5879 5878 5877 5876 5875 5873 5872 5870 5869 5868 5867 5865 5864 5863 5861 5860 5860 5860
5915 5915 5914 5914 5913 5913 5912 5911 5910 5909 5907 5906 5904 5903 5901 5900 5898 5896 5895 5894 5892 5891 5890 5889 5888 5886 5885 5884 5883 5882 5881 5880 5879 5878 5876 5875 5874 5872 5871 5869 5868 5866 5864 5863 5861 5859 5858 5858 5857
5916 5916 5915 5914 5914 5913 5913 5912 5911 5909 5907 5906 5905 5904 5903 5901 5899 5897 5896 5895 5893 5892 5891 5890 5889 5888 5887 5886 5885 5884 5883 5881 5880 5878 5877 5875 5874 5873 5871 5869 5867 5866 5864 5862 5861 5859 5857 5855 5855
5916 5916 5916 5915 5914 5914 5915 5913 5911 5910 5908 5907 5906 5905 5903 5902 5900 5898 5897 5896 5894 5893 5892 5891 5890 5889 5888 5887 5886 5885 5884 5882 5880 5879 5877 5876 5874 5873 5871 5869 5867 5866 5864 5863 5861 5859 5857 5856 5855
5916 5916 5916 5915 5914 5914 5914 5912 5911 5910 5909 5908 5907 5905 5904 5902 5901 5899 5898 5897 5896 5894 5893 5892 5891 5890 5889 5888 5887 5885 5884 5882 5881 5879 5877 5876 5874 5873 5871 5870 5868 5866 5865 5863 5861 5859 5858 5857 5856
5915 5915 5915 5915 5914 5914 5913 5913 5911 5910 5909 5908 5907 5906 5904 5903 5902 5900 5898 5897 5896 5895 5894 5893 5892 5890 5889 5888 5887 5886 5884 5883 5881 5879 5878 5876 5875 5873 5871 5870 5868 5866 5865 5863 5862 5860 5859 5857 5857
5914 5914 5914 5914 5913 5913 5913 5913 5911 5909 5909 5908 5907 5905 5904 5903 5902 5900 5899 5898 5897 5896 5894 5893 5892 5890 5889 5888 5887 5885 5884 5883 5881 5879 5877 5876 5874 5872 5871 5869 5868 5866 5865 5863 5862 5860 5859 5858 5857
5912 5913 5913 5913 5912 5911 5911 5911 5911 5909 5909 5908 5907 5905 5904 5903 5902 5900 5899 5898 5897 5896 5895 5894 5892 5891 5889 5888 5887 5885 5884 5882 5881 5879 5877 5875 5874 5872 5870 5868 5867 5865 5864 5862 5861 5860 5859 5858 5856
5911 5912 5912 5912 5911 5911 5910 5910 5910 5909 5908 5907 5906 5904 5903 5902 5901 5900 5899 5898 5897 5896 5895 5894 5892 5890 5889 5888 5886 5885 5883 5882 5880 5879 5877 5875 5873 5871 5870 5867 5866 5864 5862 5861 5860 5859 5858 5857 5856
5909 5910 5911 5911 5910 5910 5910 5908 5908 5908 5907 5906 5905 5903 5902 5901 5901 5900 5899 5897 5896 5895 5894 5893 5891 5890 5888 5887 5885 5884 5883 5881 5879 5877 5876 5874 5872 5870 5868 5867 5865 5863 5861 5860 5858 5857 5856 5855 5854
5907 5908 5908 5909 5909 5909 5908 5907 5907 5906 5906 5905 5903 5902 5901 5901 5900 5899 5897 5896 5895 5894 5893 5892 5890 5889 5887 5886 5884 5883 5881 5880 5878 5876 5874 5872 5871 5869 5867 5865 5863 5861 5859 5858 5857 5855 5854 5854 5853
5905 5906 5906 5906 5906 5906 5906 5905 5905 5904 5904 5903 5901 5900 5900 5899 5898 5897 5896 5894 5894 5893 5892 5891 5889 5888 5886 5884 5883 5881 5880 5878 5876 5874 5872 5870 5868 5867 5865 5863 5861 5859 5857 5856 5854 5853 5852 5851 5850
5902 5904 5904 5904 5903 5903 5903 5902 5903 5901 5901 5900 5899 5898 5897 5897 5896 5895 5894 5893 5892 5892 5890 5889 5887 5886 5883 5882 5881 5880 5878 5876 5874 5872 5870 5868 5866 5864 5862 5860 5859 5857 5855 5854 5852 5851 5849 5848 5847
5899 5901 5901 5901 5900 5900 5900 5899 5900 5899 5898 5898 5897 5897 5896 5896 5895 5893 5892 5891 5891 5890 5888 5887 5885 5884 5882 5881 5879 5877 5876 5874 5872 5870 5867 5865 5863 5861 5859 5857 5856 5854 5852 5850 5849 5848 5846 5845 5844
5897 5898 5898 5899 5898 5897 5897 5897 5896 5896 5896 5896 5896 5895 5894 5893 5891 5891 5890 5889 5888 5887 5886 5885 5883 5882 5880 5878 5876 5875 5873 5871 5869 5867 5864 5862 5860 5858 5856 5854 5852 5851 5849 5847 5846 5844 5843 5842 5841
5894 5895 5896 5895 5895 5894 5894 5894 5894 5894 5894 5894 5894 5892 5891 5891 5889 5888 5887 5886 5885 5884 5883 5882 5881 5879 5878 5876 5874 5872 5870 5868 5866 5864 5861 5859 5857 5855 5852 5851 5849 5847 5845 5844 5842 5841 5840 5838 5837
5890 5891 5891 5892 5892 5892 5891 5893 5891 5891 5891 5891 5891 5889 5888 5887 5886 5885 5884 5883 5882 5881 5881 5879 5878 5876 5875 5873 5871 5869 5866 5864 5862 5860 5858 5856 5854 5851 5849 5847 5845 5843 5842 5840 5838 5837 5836 5834 5833
5885 5886 5886 5887 5888 5888 5888 5890 5887 5888 5888 5888 5887 5886 5885 5884 5882 5881 5881 5880 5879 5878 5877 5876 5875 5873 5872 5870 5868 5865 5863 5861 5859 5857 5854 5852 5850 5847 5845 5843 5841 5839 5837 5836 5834 5832 5831 5830 5828